• In Uzbekistan
  • List of Countries
  • For 7 days
  • Water Temperature
  • Satellite Maps
  • Weather Map
  • Weather Widgets
  • user-avatar
    Login

    Hourly Weather Solden

    Today, 25 September, Tuesday

    Time Temperature Precipitation Wind Pressure Humidity
    00:00 -4°C° 0 mm 2 mps 588 mmHg 76%
    01:00 -4°C° 0 mm 2 mps 588 mmHg 75%
    02:00 -5°C° 0 mm 2 mps 588 mmHg 73%
    03:00 -5°C° 0 mm 2 mps 588 mmHg 71%
    04:00 -3°C° 0 mm 1 mps 588 mmHg 68%
    05:00 -2°C° 0 mm 1 mps 589 mmHg 65%
    06:00 -2°C° 0 mm 1 mps 589 mmHg 61%
    07:00 -2°C° 0 mm 1 mps 589 mmHg 58%
    08:00 +1°C° 0 mm 1 mps 591 mmHg 49%
    09:00 +4°C° 0 mm 1 mps 592 mmHg 40%
    10:00 +7°C° 0 mm 1 mps 593 mmHg 31%
    11:00 +7°C° 0 mm 2 mps 594 mmHg 30%
    12:00 +8°C° 0 mm 2 mps 594 mmHg 30%
    13:00 +9°C° 0 mm 2 mps 594 mmHg 29%
    14:00 +8°C° 0 mm 2 mps 594 mmHg 32%
    15:00 +8°C° 0 mm 2 mps 594 mmHg 36%
    16:00 +7°C° 0 mm 2 mps 593 mmHg 39%
    17:00 +5°C° 0 mm 2 mps 592 mmHg 52%
    18:00 +3°C° 0 mm 1 mps 591 mmHg 65%
    19:00 0°C° 0 mm 1 mps 591 mmHg 78%
    20:00 0°C° 0 mm 1 mps 591 mmHg 78%
    21:00 0°C° 0 mm 1 mps 591 mmHg 79%
    22:00 0°C° 0 mm 1 mps 591 mmHg 79%
    23:00 0°C° 0 mm 1 mps 591 mmHg 80%

    Tomorrow, 26 September, Wednesday

    Time Temperature Precipitation Wind Pressure Humidity
    00:00 0°C° 0 mm 1 mps 592 mmHg 80%
    01:00 0°C° 0 mm 1 mps 592 mmHg 80%
    02:00 0°C° 0 mm 1 mps 592 mmHg 81%
    03:00 0°C° 0 mm 1 mps 591 mmHg 82%
    04:00 0°C° 0 mm 1 mps 591 mmHg 83%
    05:00 0°C° 0 mm 1 mps 591 mmHg 80%
    06:00 0°C° 0 mm 1 mps 592 mmHg 77%
    07:00 +1°C° 0 mm 1 mps 592 mmHg 74%
    08:00 +4°C° 0 mm 1 mps 593 mmHg 62%
    09:00 +7°C° 0 mm 1 mps 595 mmHg 49%
    10:00 +10°C° 0 mm 1 mps 596 mmHg 36%
    11:00 +11°C° 0 mm 1 mps 596 mmHg 34%
    12:00 +12°C° 0 mm 1 mps 597 mmHg 32%
    13:00 +13°C° 0 mm 2 mps 597 mmHg 30%
    14:00 +13°C° 0 mm 2 mps 597 mmHg 34%
    15:00 +12°C° 0 mm 2 mps 596 mmHg 37%
    16:00 +12°C° 0 mm 2 mps 596 mmHg 41%
    17:00 +9°C° 0 mm 1 mps 594 mmHg 52%
    18:00 +6°C° 0 mm 1 mps 593 mmHg 64%
    19:00 +3°C° 0 mm 1 mps 592 mmHg 76%
    20:00 +3°C° 0 mm 1 mps 592 mmHg 74%
    21:00 +3°C° 0 mm 1 mps 592 mmHg 72%
    22:00 +3°C° 0 mm 1 mps 592 mmHg 70%
    23:00 +3°C° 0 mm 1 mps 592 mmHg 67%

    Day after tomorrow, 27 September, Thursday

    Time Temperature Precipitation Wind Pressure Humidity
    00:00 +3°C° 0 mm 1 mps 592 mmHg 64%
    01:00 +3°C° 0 mm 1 mps 592 mmHg 61%
    02:00 +3°C° 0 mm 1 mps 591 mmHg 57%
    03:00 +3°C° 0 mm 1 mps 591 mmHg 54%
    04:00 +3°C° 0 mm 1 mps 591 mmHg 50%
    05:00 +3°C° 0 mm 1 mps 591 mmHg 49%
    06:00 +4°C° 0 mm 1 mps 591 mmHg 48%
    07:00 +4°C° 0 mm 1 mps 592 mmHg 46%
    08:00 +8°C° 0 mm 1 mps 593 mmHg 40%
    09:00 +11°C° 0 mm 1 mps 595 mmHg 34%
    10:00 +14°C° 0 mm 1 mps 596 mmHg 27%
    11:00 +15°C° 0 mm 1 mps 596 mmHg 27%
    12:00 +16°C° 0 mm 1 mps 596 mmHg 27%
    13:00 +18°C° 0 mm 1 mps 596 mmHg 27%
    14:00 +16°C° 0 mm 1 mps 596 mmHg 31%
    15:00 +15°C° 0 mm 1 mps 595 mmHg 35%
    16:00 +15°C° 0 mm 2 mps 594 mmHg 39%
    17:00 +12°C° 0 mm 1 mps 593 mmHg 51%
    18:00 +8°C° 0 mm 1 mps 591 mmHg 64%
    19:00 +4°C° 0 mm 0 mps 589 mmHg 76%
    20:00 +5°C° 0 mm 1 mps 589 mmHg 76%
    21:00 +5°C° 0 mm 1 mps 589 mmHg 76%
    22:00 +4°C° 0 mm 1 mps 589 mmHg 76%
    23:00 +4°C° 0 mm 1 mps 589 mmHg 75%

    28 September, Friday

    Time Temperature Precipitation Wind Pressure Humidity
    00:00 +4°C° 0 mm 1 mps 588 mmHg 74%
    01:00 +4°C° 0 mm 1 mps 588 mmHg 73%
    02:00 +4°C° 0 mm 1 mps 587 mmHg 71%
    03:00 +4°C° 0 mm 1 mps 587 mmHg 70%
    04:00 +4°C° 0 mm 1 mps 587 mmHg 68%
    05:00 +4°C° 0 mm 1 mps 587 mmHg 64%
    06:00 +4°C° 0 mm 1 mps 587 mmHg 61%
    07:00 +5°C° 0 mm 1 mps 587 mmHg 58%
    08:00 +8°C° 0 mm 1 mps 588 mmHg 49%
    09:00 +11°C° 0 mm 1 mps 590 mmHg 40%
    10:00 +14°C° 0 mm 1 mps 591 mmHg 32%
    11:00 +15°C° 0 mm 1 mps 591 mmHg 31%
    12:00 +16°C° 0 mm 1 mps 591 mmHg 30%
    13:00 +18°C° 0 mm 1 mps 591 mmHg 29%
    14:00 +16°C° 0 mm 2 mps 590 mmHg 32%
    15:00 +15°C° 0 mm 2 mps 590 mmHg 36%
    16:00 +15°C° 0 mm 2 mps 589 mmHg 40%
    17:00 +12°C° 0 mm 2 mps 588 mmHg 53%
    18:00 +9°C° 0 mm 1 mps 587 mmHg 65%
    19:00 +6°C° 0 mm 1 mps 585 mmHg 78%
    20:00 +6°C° 0 mm 1 mps 585 mmHg 80%
    21:00 +6°C° 0 mm 1 mps 585 mmHg 83%
    22:00 +5°C° 0 mm 1 mps 586 mmHg 85%
    23:00 +5°C° 0 mm 1 mps 585 mmHg 86%

    29 September, Saturday

    Time Temperature Precipitation Wind Pressure Humidity
    00:00 +5°C° 0 mm 1 mps 585 mmHg 87%
    01:00 +4°C° 0 mm 1 mps 585 mmHg 87%
    02:00 +3°C° 0 mm 2 mps 585 mmHg 88%
    03:00 +3°C° 0 mm 2 mps 584 mmHg 88%
    04:00 +3°C° 0 mm 2 mps 584 mmHg 88%
    05:00 +3°C° 0 mm 2 mps 584 mmHg 87%
    06:00 +3°C° 0 mm 2 mps 584 mmHg 86%
    07:00 +3°C° 0 mm 2 mps 585 mmHg 86%
    08:00 +6°C° 0 mm 1 mps 586 mmHg 77%
    09:00 +8°C° 0 mm 1 mps 587 mmHg 69%
    10:00 +10°C° 0 mm 1 mps 588 mmHg 61%
    11:00 +10°C° 0 mm 1 mps 588 mmHg 60%
    12:00 +10°C° 0 mm 1 mps 588 mmHg 59%
    13:00 +11°C° 0 mm 1 mps 588 mmHg 58%
    14:00 +10°C° 0.1 mm 1 mps 587 mmHg 61%
    15:00 +10°C° 0.1 mm 1 mps 587 mmHg 64%
    16:00 +8°C° 0.1 mm 2 mps 587 mmHg 67%
    17:00 +8°C° 0.1 mm 1 mps 586 mmHg 74%
    18:00 +6°C° 0.1 mm 1 mps 586 mmHg 81%
    19:00 +5°C° 0.1 mm 1 mps 585 mmHg 88%
    20:00 +4°C° 0 mm 1 mps 585 mmHg 89%
    21:00 +4°C° 0 mm 1 mps 585 mmHg 90%
    22:00 +4°C° 0 mm 1 mps 585 mmHg 92%
    23:00 +4°C° 0 mm 1 mps 585 mmHg 92%

    30 September, Sunday

    Time Temperature Precipitation Wind Pressure Humidity
    00:00 +4°C° 0 mm 1 mps 585 mmHg 93%
    01:00 +3°C° 0 mm 1 mps 585 mmHg 94%
    02:00 +3°C° 0 mm 1 mps 584 mmHg 94%
    03:00 +3°C° 0 mm 1 mps 584 mmHg 94%
    04:00 +3°C° 0 mm 1 mps 584 mmHg 95%
    05:00 +3°C° 0 mm 1 mps 584 mmHg 94%
    06:00 +3°C° 0 mm 1 mps 584 mmHg 93%
    07:00 +3°C° 0 mm 1 mps 584 mmHg 92%
    08:00 +5°C° 0 mm 1 mps 585 mmHg 83%
    09:00 +7°C° 0 mm 1 mps 586 mmHg 75%
    10:00 +9°C° 0 mm 1 mps 587 mmHg 66%
    11:00 +9°C° 0 mm 1 mps 587 mmHg 63%
    12:00 +10°C° 0 mm 1 mps 587 mmHg 59%
    13:00 +11°C° 0 mm 1 mps 588 mmHg 56%
    14:00 +10°C° 0 mm 1 mps 587 mmHg 59%
    15:00 +9°C° 0 mm 2 mps 587 mmHg 62%
    16:00 +8°C° 0 mm 2 mps 587 mmHg 65%
    17:00 +8°C° 0 mm 1 mps 586 mmHg 74%
    18:00 +6°C° 0 mm 1 mps 586 mmHg 82%
    19:00 +5°C° 0 mm 1 mps 586 mmHg 90%
    20:00 +5°C° 0 mm 1 mps 586 mmHg 91%
    21:00 +4°C° 0 mm 1 mps 586 mmHg 91%
    22:00 +4°C° 0 mm 1 mps 586 mmHg 92%
    23:00 +4°C° 0 mm 1 mps 586 mmHg 92%
    Show more